| time (UTC) | temp F | wind direction | speed knots | gust knots | rain 1hr in | rain 24hr in | rain mn in | humidity % | barometer mb |
| 20260831083037 | 58 | 137 | 0.0 | 0.0 | 0.00 | 0.00 | 0.00 | 41 | 1001.6 |
| 20260831081538 | 58 | 184 | 0.0 | 0.0 | 0.00 | 0.00 | 0.00 | 36 | 1001.9 |
| 20260831080032 | 58 | 160 | 0.9 | 0.0 | 0.00 | 0.00 | 0.00 | 30 | 1001.7 |
| 20260831074534 | 58 | 210 | 0.9 | 0.0 | 0.00 | 0.00 | 0.00 | 33 | 1001.7 |
| 20260831073032 | 58 | 131 | 0.9 | 0.0 | 0.00 | 0.00 | 0.00 | 31 | 1001.8 |
| 20260831071536 | 58 | 185 | 0.0 | 0.0 | 0.00 | 0.00 | 0.00 | 34 | 1001.8 |
| 20260831070030 | 58 | 203 | 0.0 | 0.0 | 0.00 | 0.00 | 0.00 | 35 | 1002.8 |
| 20260831064530 | 58 | 182 | 0.0 | 0.0 | 0.00 | 0.00 | 0.00 | 33 | 1002.7 |
| 20260831063033 | 58 | 193 | 0.9 | 0.0 | 0.00 | 0.00 | 0.00 | 34 | 1002.4 |
| 20260831061529 | 58 | 145 | 0.9 | 0.0 | 0.00 | 0.00 | 0.00 | 35 | 1002.3 |
| 20260831060028 | 58 | 208 | 0.0 | 0.0 | 0.00 | 0.00 | 0.00 | 36 | 1002.8 |
| 20260831054527 | 58 | 160 | 0.0 | 0.0 | 0.00 | 0.00 | 0.00 | 36 | 1002.8 |
| 20260831053043 | 59 | 162 | 0.0 | 0.0 | 0.00 | 0.00 | 0.00 | 36 | 1002.8 |
| 20260831051531 | 59 | 136 | 0.9 | 0.0 | 0.00 | 0.00 | 0.00 | 35 | 1003.2 |
| 20260831050026 | 59 | 191 | 0.0 | 0.0 | 0.00 | 0.00 | 0.00 | 34 | 1003.7 |
| 20260831044526 | 59 | 161 | 0.0 | 0.0 | 0.00 | 0.00 | 0.00 | 34 | 1003.7 |
| 20260831043025 | 59 | 133 | 0.9 | 0.0 | 0.00 | 0.00 | 0.00 | 34 | 1003.5 |
| 20260831041525 | 59 | 114 | 0.0 | 0.0 | 0.00 | 0.00 | 0.00 | 34 | 1003.4 |
| 20260831040024 | 59 | 171 | 0.0 | 0.0 | 0.00 | 0.00 | 0.00 | 34 | 1003.8 |
| 20260831034524 | 59 | 154 | 0.0 | 0.0 | 0.00 | 0.00 | 0.00 | 35 | 1003.7 |
| 20260831033031 | 59 | 140 | 0.0 | 0.0 | 0.00 | 0.00 | 0.00 | 36 | 1003.6 |
| 20260831031527 | 60 | 147 | 0.0 | 0.0 | 0.00 | 0.00 | 0.00 | 35 | 1003.4 |
| 20260831030022 | 60 | 140 | 0.0 | 0.0 | 0.00 | 0.00 | 0.00 | 37 | 1004.6 |
| 20260831024522 | 60 | 195 | 0.0 | 0.0 | 0.00 | 0.00 | 0.00 | 42 | 1004.3 |
| 20260831023033 | 61 | 175 | 0.9 | 0.0 | 0.00 | 0.00 | 0.00 | 45 | 1004.1 |
| 20260831021534 | 61 | 202 | 1.7 | 0.0 | 0.00 | 0.00 | 0.00 | 48 | 1003.7 |
| 20260831020039 | 62 | 202 | 1.7 | 0.0 | 0.00 | 0.00 | 0.00 | 53 | 1003.4 |
| 20260831014520 | 63 | 205 | 1.7 | 0.0 | 0.00 | 0.00 | 0.00 | 55 | 1003.8 |
| 20260831013020 | 64 | 205 | 1.7 | 0.0 | 0.00 | 0.00 | 0.00 | 54 | 1003.9 |
| 20260831011524 | 65 | 186 | 0.9 | 0.0 | 0.00 | 0.00 | 0.00 | 52 | 1003.5 |
| 20260831010019 | 66 | 224 | 1.7 | 0.0 | 0.00 | 0.00 | 0.00 | 50 | 1003.1 |
| 20260831004518 | 67 | 117 | 1.7 | 0.0 | 0.00 | 0.00 | 0.00 | 49 | 1002.7 |
| 20260831003017 | 68 | 219 | 2.6 | 0.0 | 0.00 | 0.00 | 0.00 | 47 | 1002.7 |
| 20260831001525 | 69 | 116 | 1.7 | 0.0 | 0.00 | 0.00 | 0.00 | 45 | 1002.2 |
| 20260831000020 | 70 | 200 | 1.7 | 0.0 | 0.00 | 0.00 | 0.00 | 41 | 1001.6 |
| 20260830234526 | 71 | 212 | 0.9 | 0.0 | 0.00 | 0.00 | 0.00 | 38 | 1001.9 |
| 20260830233014 | 72 | 196 | 1.7 | 0.0 | 0.00 | 0.00 | 0.00 | 36 | 1001.9 |
| 20260830231518 | 72 | 222 | 0.9 | 0.0 | 0.00 | 0.00 | 0.00 | 35 | 1001.6 |
| 20260830230012 | 72 | 208 | 1.7 | 0.0 | 0.00 | 0.00 | 0.00 | 34 | 1002.0 |
| 20260830224512 | 73 | 222 | 0.9 | 0.0 | 0.00 | 0.00 | 0.00 | 32 | 1001.6 |
| 20260830223011 | 73 | 157 | 0.9 | 0.0 | 0.00 | 0.00 | 0.00 | 32 | 1002.0 |
| 20260830221513 | 72 | 144 | 1.7 | 0.0 | 0.00 | 0.00 | 0.00 | 31 | 1002.2 |
| 20260830220009 | 73 | 150 | 1.7 | 0.0 | 0.00 | 0.00 | 0.00 | 27 | 1002.3 |
| 20260830214507 | 73 | 162 | 0.9 | 0.0 | 0.00 | 0.00 | 0.00 | 25 | 1002.4 |
| 20260830213007 | 73 | 205 | 0.9 | 0.0 | 0.00 | 0.00 | 0.00 | 26 | 1002.5 |
| 20260830211504 | 73 | 130 | 0.9 | 0.0 | 0.00 | 0.00 | 0.00 | 27 | 1002.7 |
| 20260830210006 | 72 | 209 | 1.7 | 0.0 | 0.00 | 0.00 | 0.00 | 28 | 1002.8 |
| 20260830204503 | 72 | 171 | 1.7 | 0.0 | 0.00 | 0.00 | 0.00 | 27 | 1002.7 |
| 20260830203002 | 73 | 264 | 0.9 | 0.0 | 0.00 | 0.00 | 0.00 | 26 | 1002.9 |
| 20260830201502 | 72 | 155 | 0.9 | 0.0 | 0.00 | 0.00 | 0.00 | 28 | 1002.8 |
| 20260830200002 | 73 | 217 | 0.9 | 0.0 | 0.00 | 0.00 | 0.00 | 28 | 1002.8 |
| 20260830194501 | 73 | 127 | 0.9 | 0.0 | 0.00 | 0.00 | 0.00 | 28 | 1003.0 |
| 20260830193100 | 73 | 191 | 0.9 | 0.0 | 0.00 | 0.00 | 0.00 | 27 | 1003.1 |
| 20260830191557 | 72 | 131 | 0.9 | 0.0 | 0.00 | 0.00 | 0.00 | 28 | 1003.8 |
| 20260830190041 | 70 | 219 | 0.9 | 0.0 | 0.00 | 0.00 | 0.00 | 26 | 1003.9 |
| 20260830184538 | 70 | 210 | 0.0 | 0.0 | 0.00 | 0.00 | 0.00 | 28 | 1003.8 |
| 20260830183039 | 70 | 230 | 0.9 | 0.0 | 0.00 | 0.00 | 0.00 | 30 | 1004.1 |
| 20260830181532 | 69 | 203 | 0.0 | 0.0 | 0.00 | 0.00 | 0.00 | 30 | 1004.2 |
| 20260830180029 | 69 | 237 | 0.9 | 0.0 | 0.00 | 0.00 | 0.00 | 28 | 1004.3 |
| 20260830174526 | 68 | 179 | 0.0 | 0.0 | 0.00 | 0.00 | 0.00 | 29 | 1004.3 |
| 20260830173024 | 68 | 188 | 0.0 | 0.0 | 0.00 | 0.00 | 0.00 | 30 | 1004.5 |
| 20260830171523 | 67 | 179 | 0.0 | 0.0 | 0.00 | 0.00 | 0.00 | 30 | 1004.4 |
| 20260830170020 | 67 | 195 | 0.0 | 0.0 | 0.00 | 0.00 | 0.00 | 29 | 1004.3 |
| 20260830164513 | 66 | 152 | 0.0 | 0.0 | 0.00 | 0.00 | 0.00 | 30 | 1004.3 |
| 20260830163014 | 66 | 212 | 0.0 | 0.0 | 0.00 | 0.00 | 0.00 | 32 | 1004.2 |
| 20260830161512 | 65 | 217 | 0.0 | 0.0 | 0.00 | 0.00 | 0.00 | 32 | 1004.6 |
| 20260830154557 | 62 | 126 | 0.0 | 0.0 | 0.00 | 0.00 | 0.00 | 46 | 1004.6 |
| 20260830153059 | 60 | 126 | 0.0 | 0.0 | 0.00 | 0.00 | 0.00 | 50 | 1005.1 |
| 20260830151554 | 58 | 126 | 0.0 | 0.0 | 0.00 | 0.00 | 0.00 | 56 | 1005.1 |
| 20260830150050 | 58 | 126 | 0.0 | 0.0 | 0.00 | 0.00 | 0.00 | 54 | 1005.1 |
| 20260830144549 | 58 | 126 | 0.0 | 0.0 | 0.00 | 0.00 | 0.00 | 52 | 1005.2 |
| 20260830143104 | 57 | 126 | 0.0 | 0.0 | 0.00 | 0.00 | 0.00 | 51 | 1005.8 |
| 20260830141548 | 57 | 126 | 0.0 | 0.0 | 0.00 | 0.00 | 0.00 | 51 | 1005.5 |
| 20260830140048 | 57 | 126 | 0.0 | 0.0 | 0.00 | 0.00 | 0.00 | 50 | 1005.0 |
| 20260830134548 | 57 | 126 | 0.0 | 0.0 | 0.00 | 0.00 | 0.00 | 49 | 1004.8 |
| 20260830133047 | 57 | 126 | 0.0 | 0.0 | 0.00 | 0.00 | 0.00 | 48 | 1004.2 |
| 20260830131544 | 57 | 126 | 0.0 | 0.0 | 0.00 | 0.00 | 0.00 | 48 | 1004.1 |
| 20260830130053 | 58 | 126 | 0.0 | 0.0 | 0.00 | 0.00 | 0.00 | 49 | 1003.0 |
| 20260830124540 | 58 | 126 | 0.0 | 0.0 | 0.00 | 0.00 | 0.00 | 50 | 1002.7 |
| 20260830123040 | 58 | 126 | 0.0 | 0.0 | 0.00 | 0.00 | 0.00 | 50 | 1002.6 |
| 20260830121542 | 58 | 126 | 0.0 | 0.0 | 0.00 | 0.00 | 0.00 | 50 | 1002.6 |
| 20260830120047 | 58 | 126 | 0.0 | 0.0 | 0.00 | 0.00 | 0.00 | 50 | 1001.6 |
| 20260830114604 | 58 | 126 | 0.0 | 0.0 | 0.00 | 0.00 | 0.00 | 51 | 1001.5 |
| 20260830113043 | 58 | 126 | 0.0 | 0.0 | 0.00 | 0.00 | 0.00 | 52 | 1001.5 |
| 20260830111537 | 58 | 126 | 0.0 | 0.0 | 0.00 | 0.00 | 0.00 | 54 | 1001.6 |
| 20260830110034 | 59 | 126 | 0.0 | 0.0 | 0.00 | 0.00 | 0.00 | 54 | 1001.1 |
| 20260830104529 | 59 | 126 | 0.0 | 0.0 | 0.00 | 0.00 | 0.00 | 54 | 1000.6 |
| 20260830103026 | 59 | 126 | 0.0 | 0.0 | 0.00 | 0.00 | 0.00 | 53 | 1000.6 |
| 20260830101521 | 60 | 126 | 0.0 | 0.0 | 0.00 | 0.00 | 0.00 | 52 | 1000.6 |
| 20260830100016 | 60 | 126 | 0.0 | 0.0 | 0.00 | 0.00 | 0.00 | 51 | 1000.7 |
| 20260830094511 | 60 | 176 | 0.0 | 0.0 | 0.00 | 0.00 | 0.00 | 50 | 1000.6 |
| 20260830093009 | 61 | 192 | 0.0 | 0.0 | 0.00 | 0.00 | 0.00 | 49 | 1000.6 |
| 20260830091504 | 61 | 137 | 0.0 | 0.0 | 0.00 | 0.00 | 0.00 | 47 | 1000.6 |
| 20260830090059 | 61 | 151 | 0.0 | 0.0 | 0.00 | 0.00 | 0.00 | 47 | 1000.6 |
| 20260830084555 | 61 | 176 | 0.0 | 0.0 | 0.00 | 0.00 | 0.00 | 46 | 1000.8 |